Location: Astroquest
(35.1187°N, 89.7105°W)
Time: 04:24:09
(UTC-06:00)

ISS - Visible Passes

Search period start: 10 December 2018 00:00
Search period end: 20 December 2018 00:00
Orbit: 401 x 408 km, 51.6° (Epoch: 10 December)

Date Brightness Start Highest point End Pass type
(mag) Time Alt. Az. Time Alt. Az. Time Alt. Az.
10 Dec -2.6 18:17:43 10° NNW 18:19:50 29° N 18:19:50 29° N visible
11 Dec -2.4 17:25:52 10° NNW 17:28:25 21° NNE 17:30:36 12° E visible
11 Dec -1.2 19:01:58 10° WNW 19:03:19 20° W 19:03:19 20° W visible
12 Dec -3.8 18:09:33 10° NW 18:12:48 80° SW 18:14:29 26° SE visible
13 Dec -3.6 17:17:23 10° NW 17:20:34 47° NE 17:23:41 10° ESE visible
13 Dec -0.6 18:55:11 10° W 18:56:42 13° SW 18:58:12 10° SSW visible
14 Dec -1.5 18:01:51 10° WNW 18:04:37 26° SW 18:07:23 10° S visible
